DMSP 5D-2 F13 DEB, 40414

Orbit data source: Space-Track

DMSP 5D-2 F13 DEB, 40414 is space debris in SSO originally from a launch on Fri, 24 Mar 1995 UTC launched from the Air Force Western Test Range (AFWTR). Debris objects in space refer to the collection of defunct objects orbiting the Earth. Examples of debris include non-operational satellites, rocket bodies, and fragments generated from explosions, collisions, or faulty payload assembly.

Loading next visibility...
Identifier
40414, 1995-015AB
Orbit
SSO
Country
Flag of USUS
Related business
Manufacturer
Unknown
Mission
Spacecraft
Bus & Motor
Unknown
Mass
Unknown
Launch date (UTC)
1995-03-24 (31 years ago)
Launch vehicle
Unknown
Launch site
Air Force Western Test Range (AFWTR)
Object type
Payload
Rocket body
Debris
Shape & HBR
Unknown shape, 0.1 m
Radar Cross Section
Small (<0.1 m²)

Expand to show TLE details & history
Last TLE update: 23 hours ago

TLE from 23 hours ago
0 DMSP 5D-2 F13 DEB
1 40414U 95015AB  25287.53169373  .00002822  00000-0  10849-2 0  9992
2 40414  98.6492 311.8446 0010066 286.2816  73.7259 14.31180319552125
Epoch: 2025-10-14T12:45Z
TLE epoch observation values (Epoch: 2025-10-14T12:45:38.338Z)
Latitude
-0.00005°
Longitude
97.11609°
Altitude
788.705 km
Speed
7.46 km/s
True Right ascension
20h 47m 22s
True Declination
0° 00' 00"
Sunlit
Object was in daylight at epoch
Visualization orbit readout
Latitude
Unknown
Longitude
Unknown
Altitude
Unknown
Speed
Unknown
Apparent Right ascension
Unknown
Apparent Declination
Unknown
Sunlit
N/A
Visualization observer readout
Local Sidereal Time
06:28:20
Azimuth
Unknown
Elevation
Unknown
Doppler factor
Unknown
Orbital elements
Apogee altitude
792.139 km
Perigee altitude
777.719 km
Semi-major axis
7,163.066 km
Eccentricity
0.00101
Inclination
98.6492°
RAAN
311.8446°
Arg. of periapsis
286.2816°
True anomaly
73.83667°
Mean anomaly
73.7259°
Eccentric anomaly
73.78128°
Mean motion
3.5801 °/min
Orbital period
100.56 mins
BSTAR
0.0010849

Documentation

Showing up to 5 results
|